OV1-9 R/B, 2622

Orbit data source: Space-Track

OV1-9 R/B, 2622 is space debris in LEO originally from a launch on Sun, 11 Dec 1966 UTC launched from the Air Force Western Test Range (AFWTR). Debris objects in space refer to the collection of defunct objects orbiting the Earth. Examples of debris include non-operational satellites, rocket bodies, and fragments generated from explosions, collisions, or faulty payload assembly.

Loading next visibility...
Identifier
2622, 1966-111D
Orbit
LEO
Country
Flag of USUS
Related business
Manufacturer
ABL
Mission
Spacecraft
Bus & Motor
ALTAIR, Unknown motor
Mass
125 kg wet, 125 kg dry
Launch date (UTC)
1966-12-11 (59 years ago)
Launch vehicle
Unknown
Launch site
Air Force Western Test Range (AFWTR)
Object type
Payload
Rocket body
Debris
Shape & HBR
Unknown
Radar Cross Section
Medium (>0.1 m² and <1 m²)

Expand to show TLE details & history
Last TLE update: 6 hours ago

TLE from 6 hours ago
0 OV1-9 R/B
1  2622U 66111D   25308.04838985  .00001033  00000-0  40823-3 0  9997
2  2622  99.0893 322.9137 2223116  50.7605 327.0584 10.49443060221273
Epoch: 2025-11-04T01:09Z
TLE epoch observation values (Epoch: 2025-11-04T01:09:40.883Z)
Latitude
-0.00011°
Longitude
-98.04763°
Altitude
965.966 km
Speed
7.96 km/s
True Right ascension
21h 31m 39s
True Declination
0° 00' 00"
Sunlit
Object was in daylight at epoch
Visualization orbit readout
Latitude
Unknown
Longitude
Unknown
Altitude
Unknown
Speed
Unknown
Apparent Right ascension
Unknown
Apparent Declination
Unknown
Sunlit
N/A
Visualization observer readout
Local Sidereal Time
03:04:07
Azimuth
Unknown
Elevation
Unknown
Doppler factor
Unknown
Orbital elements
Apogee altitude
4,390.363 km
Perigee altitude
473.256 km
Semi-major axis
8,809.946 km
Eccentricity
0.22231
Inclination
99.0893°
RAAN
322.9137°
Arg. of periapsis
50.7605°
True anomaly
309.35263°
Mean anomaly
327.0584°
Eccentric anomaly
318.64192°
Mean motion
2.62472 °/min
Orbital period
137.16 mins
BSTAR
0.00040823
Loading maneuver chart data...
Computing Atmospheric mass density...
Loading historical data...
Loading historical data...
Loading historical data...
Loading historical data...
Loading historical data...
Loading historical data...
Loading historical data...
Other satellites on launch #111 in the year 1966 (1966-12-11 UTC)

Documentation

Showing up to 5 results
|